Aurora, CO

1:57 PM MST on January 21, 2018 (GMT -0700)
Buckley Air Force Base

Weather History for KBKF - October, 2012

Change the Weather History Date:

Sunday, October 21, 2012

  Actual Average Record
Temperature  
Mean Temperature 56 °F -  
Max Temperature 69 °F 60 °F 80 °F (2003)
Min Temperature 44 °F 34 °F 21 °F (1996)
Degree Days  
Heating Degree Days 8    
Growing Degree Days 6 (Base 50)    
Moisture  
Dew Point 24 °F    
Average Humidity 32    
Maximum Humidity 66    
Minimum Humidity 15    
Precipitation  
Precipitation 0.00 in - - ()
Sea Level Pressure  
Sea Level Pressure 29.71 in    
Wind  
Wind Speed 10 mph (ESE)    
Max Wind Speed 15 mph    
Max Gust Speed -    
Averages and records for this station are not official NWS values.
T = Trace of Precipitation, MM = Missing Value Source: NWS Daily Summary

Daily Weather History Graph

Daily Weather History Graph

Search for Another Location

Airport or City:

Trip Planner

Search our weather history database for the weather conditions in past years. The results will help you decide how hot, cold, wet, or windy it might be!

Date:

Astronomy

Oct. 21, 2012 Rise Set
Actual Time 7:16 AM MDT 6:10 PM MDT
Civil Twilight 6:48 AM MDT 6:37 PM MDT
Nautical Twilight 6:17 AM MDT 7:09 PM MDT
Astronomical Twilight 5:45 AM MDT 7:40 PM MDT
Moon 1:38 PM MDT No Moon Set
Length of Visible Light 11h 49m
Length of Day
10h 54m
Waxing Crescent, 46% of the Moon is Illuminated
Oct 21
Waxing Crescent
Oct 21
First Quarter
Oct 29
Full
Nov 6
Last Quarter
Nov 13
New

Hourly Weather History & Observations

Time (MDT) Temp. Windchill Dew Point Humidity Pressure Visibility Wind Dir Wind Speed Gust Speed Precip Events Conditions
12:55 AM 50.0 °F - 19.4 °F 30% 29.62 in 25.0 mi South 10.4 mph - N/A   Scattered Clouds
1:55 AM 50.0 °F - 17.6 °F 28% 29.62 in 25.0 mi South 9.2 mph - N/A   Scattered Clouds
2:55 AM 50.0 °F - 15.8 °F 26% 29.63 in 25.0 mi South 11.5 mph - N/A   Scattered Clouds
3:55 AM 48.2 °F - 17.6 °F 30% 29.65 in 25.0 mi South 9.2 mph - N/A   Scattered Clouds
4:55 AM 50.0 °F - 15.8 °F 26% 29.64 in 25.0 mi South 11.5 mph - N/A   Scattered Clouds
5:55 AM 48.2 °F - 15.8 °F 27% 29.68 in 25.0 mi SW 10.4 mph - N/A   Scattered Clouds
6:55 AM 46.4 °F 40.7 °F 15.8 °F 29% 29.71 in 70.0 mi South 12.7 mph - N/A   Scattered Clouds
7:55 AM 50.0 °F - 15.8 °F 26% 29.72 in 70.0 mi SSW 9.2 mph - N/A   Scattered Clouds
8:55 AM 57.2 °F - 19.4 °F 23% 29.74 in 70.0 mi SSW 9.2 mph - N/A   Partly Cloudy
9:55 AM 64.4 °F - 17.6 °F 16% 29.72 in 70.0 mi SSW 10.4 mph - N/A   Partly Cloudy
10:55 AM 68.0 °F - 17.6 °F 15% 29.70 in 70.0 mi NNE 5.8 mph - N/A   Partly Cloudy
11:55 AM 68.0 °F - 23.0 °F 18% 29.72 in 70.0 mi East 11.5 mph - N/A   Partly Cloudy
12:55 PM 69.8 °F - 23.0 °F 17% 29.69 in 70.0 mi NNE 15.0 mph - N/A   Partly Cloudy
1:55 PM 69.8 °F - 26.6 °F 20% 29.68 in 70.0 mi ENE 11.5 mph - N/A   Partly Cloudy
2:55 PM 69.8 °F - 26.6 °F 20% 29.66 in 70.0 mi ENE 11.5 mph - N/A   Partly Cloudy
3:55 PM 69.8 °F - 28.4 °F 21% 29.68 in 70.0 mi East 13.8 mph - N/A   Partly Cloudy
4:55 PM 68.0 °F - 28.4 °F 23% 29.68 in 70.0 mi East 9.2 mph - N/A   Partly Cloudy
5:55 PM 60.8 °F - 32.0 °F 34% 29.74 in 70.0 mi East 6.9 mph - N/A   Partly Cloudy
6:55 PM 55.4 °F - 32.0 °F 41% 29.78 in 25.0 mi NE 6.9 mph - N/A   Partly Cloudy
7:55 PM 51.8 °F - 32.0 °F 47% 29.80 in 25.0 mi ENE 5.8 mph - N/A   Partly Cloudy
8:55 PM 46.4 °F 42.4 °F 33.8 °F 62% 29.80 in 25.0 mi ENE 8.1 mph - N/A   Partly Cloudy
9:55 PM 46.4 °F 42.9 °F 33.8 °F 62% 29.81 in 25.0 mi East 6.9 mph - N/A   Partly Cloudy
10:55 PM 44.6 °F 41.4 °F 33.8 °F 66% 29.81 in 25.0 mi East 5.8 mph - N/A   Partly Cloudy
11:55 PM 44.6 °F 39.7 °F 33.8 °F 66% 29.82 in 25.0 mi ESE 9.2 mph - N/A   Partly Cloudy